Starlink 1446

operational
NORAD ID: 45663 Int'l Des: 2020-035 Owner: SPXS Country: US Constellation: starlink
LEOCIRCULAR

About Starlink 1446

Description loading...

Live Position

Loading 3D Globe...

Upcoming Passes

Altitude History

Altitude vs Time

uPlot chart will show altitude changes over time

Two-Line Element Set

1 45663U 20035G 25304.12890351 .00071708 00000-0 21685-2 0 9994
2 45663 53.0265 251.2183 0001337 54.1097 306.0028 15.33580726299727
Epoch: Oct 31, 2025 • Age: 15 hours

Current Status

Altitude 477.9 km
Velocity 7.63 km/s
Sub-Earth Point -39.01°S, 107.07°W
Launch Date Jun 4, 2020
Age 5.4 years
Type internet

Technical Details

Classification Payload
Mass 260.00 kg
Dry Mass 248.00 kg
Total Mass 260.00 kg
Length 0.20 m
Diameter 2.80 m
Span 9.00 m
Shape Box + pan
Manufacturer SPXS
Bus Type Starlink
Phase Status In Orbit
Owner/State SPXS/US

Large Constellations

Loading constellations...